AirNav   Air Wisconsin pilot careers
 
 543 users online  

WA54 1001 Fourth Avenue Plaza Heliport
Seattle, Washington, USA

GOING TO SEATTLE?


FAA INFORMATION EFFECTIVE 12 OCTOBER 2017

Location

FAA Identifier: WA54
Lat/Long: 47-36-24.3530N / 122-20-01.4550W
47-36.405883N / 122-20.024250W
47.6067647 / -122.3337375
(estimated)
Elevation: 716 ft. / 218 m (estimated)
Variation: 20E (1985)
Time zone: UTC -7 (UTC -8 during Standard Time)
Zip code: 98154

Heliport Operations

Heliport use: Private use. Permission required prior to landing
Activation date: 08/1969
Control tower: no
ARTCC: SEATTLE CENTER
FSS: SEATTLE FLIGHT SERVICE STATION
Attendance: CONTINUOUS
Wind indicator: yes
Segmented circle: yes
Landing fee: yes

Heliport Communications

WX ASOS at BFI (5 nm S): PHONE 206-763-6904
WX ASOS at RNT (8 nm SE): PHONE 425-255-6080
WX ASOS at SEA (9 nm S): PHONE 206-431-2834
WX ASOS at PAE (18 nm N): PHONE 425-355-6192
WX AWOS-3PT at PWT (19 nm W): 121.2 (360-674-2811)

Nearby radio navigation aids

VOR radial/distance  VOR name  Freq  Var
SEAr336/10.3SEATTLE VORTAC116.8019E
PAEr167/18.9PAINE VOR/DME110.6020E
TCMr357/28.1MCCHORD VORTAC109.6015E

 
NDB name  Hdg/Dist  Freq  Var  ID
NOLLA109/2.736215EBF -... ..-.
PARKK331/4.628115EHPK .... .--. -.-
RENTON307/8.235317ERNT .-. -. -
GRAYE006/29.521616EGRF --. .-. ..-.
LACOMAS358/37.132816ELAC .-.. .- -.-.
MASON COUNTY036/37.434819EMNC -- -. -.-.

Heliport Services

Airframe service: NONE
Powerplant service: NONE
Bottled oxygen: NONE
Bulk oxygen: NONE

Runway Information

Helipad H1

Dimensions: 35 x 35 ft. / 11 x 11 m
Surface: concrete, in fair condition
ROOFTOP.
Runway edge lights: ENTR BNDRY HELI OUTLINED IN FLORESCENT LGTS WHICH ARE RAISED 8 INCHES ABOVE PAD SFC.
Latitude: 47-36.405883N
Longitude: 122-20.024250W
Elevation: 716.0 ft.
Traffic pattern: rightleft
Markings: none, in fair condition
Obstructions: 25 ft. ant, 60 ft. from runway, 2:1 slope to clear
LGTD RADIO ANTENNAS WEST EDGE OF BLDG.

Heliport Ownership and Management from official FAA records

Ownership: Privately-owned
Owner: 1001 FOURTH AVE ASSOCIATES
1001 4TH AVE
SEATTLE, WA 98154
Phone 206-583-5058
Manager: CAROLYN NEER
1001 4TH AVE
SEATTLE, WA 98154
Phone 206-623-6936

Additional Remarks

CTC PROPERTY MGMT ON 206-623-6936 FOR PRIOR PERMISSION.

Instrument Procedures

There are no published instrument procedures at WA54.

Some nearby airports with instrument procedures:

KBFI - Boeing Field/King County International Airport (5 nm S)
KRNT - Renton Municipal Airport (8 nm SE)
KSEA - Seattle-Tacoma International Airport (9 nm S)
S50 - Auburn Municipal Airport (17 nm S)
KPAE - Snohomish County Airport (Paine Field) (18 nm N)
KPWT - Bremerton National Airport (19 nm W)
 
Loc | Ops | Rwys | IFR | FBO | Links
Com | Nav | Svcs | Stats | Notes


 
Area around WA54 (1001 Fourth Avenue Plaza Heliport)
 
Road maps at: MapQuest Bing Google
 
Aerial photo
No photo
 
Sectional chart

 
Airport distance calculator
Flying to 1001 Fourth Avenue Plaza Heliport? Find the distance to fly.

From to WA54

Sunrise and sunset
Times for 21-Oct-2017
 Local
(UTC-7)
 Zulu
(UTC)
Morning civil twilight07:0714:07
Sunrise07:3814:38
Sunset18:1001:10
Evening civil twilight18:4101:41

Current date and time
Zulu (UTC)  22-Oct-2017 04:40:24
Local (UTC-7)  21-Oct-2017 21:40:24
 
METAR
KBFI 
3nm S 
220353Z 19009G16KT 6SM -RA BR OVC012 15/15 A2962 RMK AO2 SLP029 P0002 T01500150 $
KRNT 
8nm SE 
220420Z AUTO 16011G17KT 10SM -RA SCT013 BKN024 OVC033 16/15 A2963 RMK AO2 P0002 T01560150 $
KSEA 
9nm S 
220353Z 19019G26KT 5SM -RA BR SCT005 BKN009 OVC027 14/13 A2962 RMK AO2 PK WND 18026/0349 SLP035 P0018 T01440133
KPWT 
18nm W 
220409Z AUTO 20014KT 10SM -RA BKN005 OVC009 13/13 A2962 RMK AO2 P0001
KPAE 
19nm N 
220400Z AUTO 16019G24KT 10SM -RA OVC008 14/13 A2958 RMK AO2 CIG 005V012 P0000 T01390128 $
TAF
KBFI 
3nm S 
211740Z 2118/2218 13006KT P6SM -RA SCT025 OVC030 FM220100 17018G27KT 5SM -RA BR OVC015 FM221200 22014G22KT P6SM SHRA OVC015
KSEA 
9nm S 
220349Z 2204/2306 19015G25KT 4SM -RA BR BKN007 OVC012 FM221400 22012KT P6SM -SHRA SCT018 OVC035 FM221800 20013G20KT P6SM VCSH SCT030 BKN050
KPWT 
18nm W 
211740Z 2118/2218 13006KT 1 1/2SM -RA BR BKN005 OVC013 TEMPO 2118/2122 P6SM -RA SCT006 BKN020 OVC030 FM220100 19021G32KT 4SM -RA BR OVC008 FM221200 22014G22KT P6SM SHRA OVC015
KPAE 
19nm N 
211740Z 2118/2218 11009KT 2SM -RA BR FEW023 BKN030 OVC035 TEMPO 2118/2122 P6SM -RA SCT018 BKN030 OVC045 FM220100 17020G30KT 5SM -RA BR OVC015 FM221200 22014G22KT P6SM SHRA OVC015
NOTAMs
Click for the latest NOTAMs
NOTAMs are issued by the DoD/FAA and will open in a separate window not controlled by AirNav.

 

 
 

Would you like to see your business listed on this page?

 If your business provides an interesting product or service to pilots, flight crews, aircraft, or users of the 1001 Fourth Avenue Plaza Heliport, you should consider listing it here.  To start the listing process, click on the button below
 
Add a business
 

Other Pages about 1001 Fourth Avenue Plaza Heliport

Update a link
 
Copyright © AirNav, LLC. All rights reserved. Privacy Policy  Contact